Location: ??????
(30.5519°N, 47.7720°E)
Time: 17:09:33
(UTC+00:00)

Aureole 3 Rocket - Pass Details

Date: 24 January 2021
Orbit: 398 x 1740 km, 82.5° (Epoch: 01 March)

Event Time Altitude Azimuth Distance (km) Brightness Sun altitude
Rises 15:56:08 0° 351° (N) 2,389 6.1 -21.1°
Reaches altitude 10° 15:57:58 10° 349° (N) 1,588 5.2 -21.5°
Maximum altitude 16:01:19 73° 265° (W) 548 2.8 -22.2°
Drops below altitude 10° 16:05:38 10° 180° (S) 2,037 5.8 -23.1°
Sets 16:08:15 0° 179° (S) 3,151 6.8 -23.6°
